Time,TemperatureF,DewpointF,PressureIn,WindDirection,WindDirectionDegrees,WindSpeedMPH,WindSpeedGustMPH,Humidity,HourlyPrecipIn,Conditions,Clouds,dailyrainin,SoftwareType,DateUTC
2013-03-05 00:09:00,33.1,17.0,30.02,WNW,293,3.0,7.0,53,0.00,,,0.00,weatherlink.com 1.10,2013-03-05 05:09:00,
2013-03-05 00:24:00,33.5,18.0,30.02,NW,308,3.0,5.0,53,0.00,,,0.00,weatherlink.com 1.10,2013-03-05 05:24:00,
2013-03-05 00:39:00,33.9,18.0,30.03,NW,318,1.0,4.0,52,0.00,,,0.00,weatherlink.com 1.10,2013-03-05 05:39:00,
2013-03-05 00:54:00,33.5,18.0,30.03,NW,316,1.0,4.0,53,0.00,,,0.00,weatherlink.com 1.10,2013-03-05 05:54:00,
2013-03-05 01:10:00,33.4,18.0,30.02,NW,320,2.0,5.0,53,0.00,,,0.00,weatherlink.com 1.10,2013-03-05 06:10:00,
2013-03-05 01:24:00,34.0,18.0,30.02,NW,317,5.0,6.0,52,0.00,,,0.00,weatherlink.com 1.10,2013-03-05 06:24:00,
2013-03-05 01:39:00,34.6,18.0,30.01,NW,320,1.0,6.0,50,0.00,,,0.00,weatherlink.com 1.10,2013-03-05 06:39:00,
2013-03-05 01:54:00,34.3,17.0,30.02,WNW,300,1.0,3.0,50,0.00,,,0.00,weatherlink.com 1.10,2013-03-05 06:54:00,
2013-03-05 02:09:00,33.5,17.0,30.02,NW,322,0.0,2.0,52,0.00,,,0.00,weatherlink.com 1.10,2013-03-05 07:09:00,
2013-03-05 02:24:00,33.9,18.0,30.02,West,264,6.0,9.0,52,0.00,,,0.00,weatherlink.com 1.10,2013-03-05 07:24:00,
2013-03-05 02:39:00,35.0,17.0,30.02,NW,305,3.0,10.0,49,0.00,,,0.00,weatherlink.com 1.10,2013-03-05 07:39:00,
2013-03-05 02:54:00,35.2,17.0,30.02,NW,313,4.0,8.0,48,0.00,,,0.00,weatherlink.com 1.10,2013-03-05 07:54:00,
2013-03-05 03:09:00,35.0,17.0,30.02,WNW,290,0.0,4.0,48,0.00,,,0.00,weatherlink.com 1.10,2013-03-05 08:09:00,
2013-03-05 03:24:00,34.5,17.0,30.02,West,269,0.0,3.0,50,0.00,,,0.00,weatherlink.com 1.10,2013-03-05 08:24:00,
2013-03-05 03:39:00,34.0,18.0,30.02,SW,221,0.0,2.0,52,0.00,,,0.00,weatherlink.com 1.10,2013-03-05 08:39:00,
2013-03-05 03:54:00,33.5,18.0,30.02,SW,235,0.0,3.0,53,0.00,,,0.00,weatherlink.com 1.10,2013-03-05 08:54:00,
2013-03-05 04:09:00,33.3,18.0,30.02,WNW,282,0.0,1.0,53,0.00,,,0.00,weatherlink.com 1.10,2013-03-05 09:09:00,
2013-03-05 04:24:00,32.8,18.0,30.02,WNW,282,0.0,0.0,54,0.00,,,0.00,weatherlink.com 1.10,2013-03-05 09:24:00,
2013-03-05 04:39:00,32.3,18.0,30.02,WNW,285,0.0,1.0,57,0.00,,,0.00,weatherlink.com 1.10,2013-03-05 09:39:00,
2013-03-05 04:54:00,32.5,18.0,30.02,NW,325,1.0,4.0,56,0.00,,,0.00,weatherlink.com 1.10,2013-03-05 09:54:00,
2013-03-05 05:09:00,32.9,19.0,30.02,NNW,335,1.0,2.0,56,0.00,,,0.00,weatherlink.com 1.10,2013-03-05 10:09:00,
2013-03-05 05:24:00,32.6,20.0,30.02,NNW,339,0.0,2.0,60,0.00,,,0.00,weatherlink.com 1.10,2013-03-05 10:24:00,
2013-03-05 05:39:00,31.9,21.0,30.03,NNW,339,0.0,0.0,65,0.00,,,0.00,weatherlink.com 1.10,2013-03-05 10:39:00,
2013-03-05 05:54:00,31.5,22.0,30.03,NNW,339,0.0,0.0,67,0.00,,,0.00,weatherlink.com 1.10,2013-03-05 10:54:00,
2013-03-05 06:09:00,31.4,21.0,30.03,NNW,339,0.0,0.0,65,0.00,,,0.00,weatherlink.com 1.10,2013-03-05 11:09:00,
2013-03-05 06:25:00,31.2,21.0,30.03,NNW,339,0.0,0.0,66,0.00,,,0.00,weatherlink.com 1.10,2013-03-05 11:25:00,
2013-03-05 06:40:00,31.1,21.0,30.03,NNW,339,0.0,2.0,66,0.00,,,0.00,weatherlink.com 1.10,2013-03-05 11:40:00,
2013-03-05 06:55:00,31.6,20.0,30.03,NNW,339,0.0,2.0,62,0.00,,,0.00,weatherlink.com 1.10,2013-03-05 11:55:00,
2013-03-05 07:10:00,33.1,19.0,30.03,NW,317,1.0,4.0,57,0.00,,,0.00,weatherlink.com 1.10,2013-03-05 12:10:00,
2013-03-05 07:25:00,34.3,19.0,30.03,NW,323,3.0,5.0,53,0.00,,,0.00,weatherlink.com 1.10,2013-03-05 12:25:00,
2013-03-05 07:40:00,35.0,19.0,30.03,NW,316,4.0,5.0,52,0.00,,,0.00,weatherlink.com 1.10,2013-03-05 12:40:00,
2013-03-05 07:55:00,35.7,19.0,30.03,North,4,2.0,3.0,50,0.00,,,0.00,weatherlink.com 1.10,2013-03-05 12:55:00,
2013-03-05 08:10:00,36.4,19.0,30.03,NNW,345,0.0,3.0,49,0.00,,,0.00,weatherlink.com 1.10,2013-03-05 13:10:00,
2013-03-05 08:25:00,37.7,19.0,30.03,NNE,12,3.0,4.0,47,0.00,,,0.00,weatherlink.com 1.10,2013-03-05 13:25:00,
2013-03-05 08:40:00,38.4,19.0,30.03,NNE,16,2.0,4.0,45,0.00,,,0.00,weatherlink.com 1.10,2013-03-05 13:40:00,
2013-03-05 08:55:00,39.1,19.0,30.03,NNW,333,2.0,6.0,44,0.00,,,0.00,weatherlink.com 1.10,2013-03-05 13:55:00,
2013-03-05 09:10:00,40.4,19.0,30.03,NNW,333,1.0,4.0,43,0.00,,,0.00,weatherlink.com 1.10,2013-03-05 14:10:00,
2013-03-05 09:25:00,41.3,20.0,30.02,NNE,31,1.0,5.0,42,0.00,,,0.00,weatherlink.com 1.10,2013-03-05 14:25:00,
2013-03-05 09:40:00,42.7,20.0,30.02,North,352,0.0,3.0,40,0.00,,,0.00,weatherlink.com 1.10,2013-03-05 14:40:00,
2013-03-05 09:55:00,43.3,19.0,30.01,East,79,0.0,5.0,38,0.00,,,0.00,weatherlink.com 1.10,2013-03-05 14:55:00,
2013-03-05 10:10:00,43.5,19.0,30.00,NNE,25,0.0,3.0,38,0.00,,,0.00,weatherlink.com 1.10,2013-03-05 15:10:00,
2013-03-05 10:25:00,45.1,19.0,29.99,WNW,284,2.0,3.0,35,0.00,,,0.00,weatherlink.com 1.10,2013-03-05 15:25:00,
2013-03-05 10:40:00,45.9,20.0,29.98,SE,126,0.0,5.0,35,0.00,,,0.00,weatherlink.com 1.10,2013-03-05 15:40:00,
2013-03-05 10:55:00,45.6,19.0,29.99,SW,227,0.0,4.0,35,0.00,,,0.00,weatherlink.com 1.10,2013-03-05 15:55:00,
2013-03-05 11:10:00,46.0,16.0,29.99,NW,311,1.0,4.0,30,0.00,,,0.00,weatherlink.com 1.10,2013-03-05 16:10:00,
2013-03-05 11:25:00,47.4,19.0,29.98,ENE,64,1.0,4.0,33,0.00,,,0.00,weatherlink.com 1.10,2013-03-05 16:25:00,
2013-03-05 11:40:00,47.5,18.0,29.97,NNW,330,2.0,2.0,31,0.00,,,0.00,weatherlink.com 1.10,2013-03-05 16:40:00,
2013-03-05 11:55:00,46.8,17.0,29.97,NNW,342,2.0,4.0,31,0.00,,,0.00,weatherlink.com 1.10,2013-03-05 16:55:00,
2013-03-05 12:10:00,47.9,21.0,29.96,North,5,1.0,6.0,35,0.00,,,0.00,weatherlink.com 1.10,2013-03-05 17:10:00,
2013-03-05 12:26:00,47.8,20.0,29.95,NE,39,2.0,8.0,33,0.00,,,0.00,weatherlink.com 1.10,2013-03-05 17:26:00,
2013-03-05 12:41:00,47.8,18.0,29.94,East,87,1.0,7.0,30,0.00,,,0.00,weatherlink.com 1.10,2013-03-05 17:41:00,
2013-03-05 12:56:00,47.8,22.0,29.93,NE,53,5.0,9.0,36,0.00,,,0.00,weatherlink.com 1.10,2013-03-05 17:56:00,
2013-03-05 13:11:00,47.2,24.0,29.93,NE,41,4.0,10.0,40,0.00,,,0.00,weatherlink.com 1.10,2013-03-05 18:11:00,
2013-03-05 13:26:00,47.7,23.0,29.92,East,82,1.0,11.0,38,0.00,,,0.00,weatherlink.com 1.10,2013-03-05 18:26:00,
2013-03-05 13:41:00,48.6,23.0,29.91,NNE,26,5.0,9.0,37,0.00,,,0.00,weatherlink.com 1.10,2013-03-05 18:41:00,
2013-03-05 13:56:00,49.8,22.0,29.90,NNE,26,5.0,9.0,34,0.00,,,0.00,weatherlink.com 1.10,2013-03-05 18:56:00,
2013-03-05 14:11:00,49.9,22.0,29.89,NNE,12,3.0,9.0,34,0.00,,,0.00,weatherlink.com 1.10,2013-03-05 19:11:00,
2013-03-05 14:26:00,50.4,22.0,29.88,NNE,12,1.0,7.0,33,0.00,,,0.00,weatherlink.com 1.10,2013-03-05 19:26:00,
2013-03-05 14:41:00,49.5,21.0,29.87,North,6,5.0,11.0,33,0.00,,,0.00,weatherlink.com 1.10,2013-03-05 19:41:00,
2013-03-05 14:56:00,49.4,21.0,29.86,NNE,25,5.0,11.0,33,0.00,,,0.00,weatherlink.com 1.10,2013-03-05 19:56:00,
2013-03-05 15:11:00,50.1,20.0,29.86,NNE,31,2.0,10.0,31,0.00,,,0.00,weatherlink.com 1.10,2013-03-05 20:11:00,
2013-03-05 15:26:00,48.9,20.0,29.86,NNE,31,0.0,11.0,32,0.00,,,0.00,weatherlink.com 1.10,2013-03-05 20:26:00,
2013-03-05 15:41:00,48.6,21.0,29.86,NE,42,2.0,7.0,33,0.00,,,0.00,weatherlink.com 1.10,2013-03-05 20:41:00,
2013-03-05 15:56:00,48.2,19.0,29.86,NE,39,5.0,8.0,31,0.00,,,0.00,weatherlink.com 1.10,2013-03-05 20:56:00,
2013-03-05 16:11:00,48.3,20.0,29.85,East,94,5.0,9.0,32,0.00,,,0.00,weatherlink.com 1.10,2013-03-05 21:11:00,
2013-03-05 16:26:00,48.7,19.0,29.86,ENE,69,3.0,10.0,31,0.00,,,0.00,weatherlink.com 1.10,2013-03-05 21:26:00,
2013-03-05 16:41:00,48.9,19.0,29.85,NE,46,6.0,8.0,31,0.00,,,0.00,weatherlink.com 1.10,2013-03-05 21:41:00,
2013-03-05 16:56:00,48.4,19.0,29.84,NE,55,3.0,9.0,31,0.00,,,0.00,weatherlink.com 1.10,2013-03-05 21:56:00,
2013-03-05 17:11:00,47.7,19.0,29.84,East,82,4.0,12.0,32,0.00,,,0.00,weatherlink.com 1.10,2013-03-05 22:11:00,
2013-03-05 17:26:00,47.1,20.0,29.84,NE,55,5.0,10.0,34,0.00,,,0.00,weatherlink.com 1.10,2013-03-05 22:26:00,
2013-03-05 17:41:00,46.6,19.0,29.84,ESE,111,4.0,9.0,34,0.00,,,0.00,weatherlink.com 1.10,2013-03-05 22:41:00,
2013-03-05 17:56:00,45.7,19.0,29.84,ESE,112,3.0,3.0,35,0.00,,,0.00,weatherlink.com 1.10,2013-03-05 22:56:00,
2013-03-05 18:11:00,45.3,21.0,29.84,ENE,74,2.0,7.0,38,0.00,,,0.00,weatherlink.com 1.10,2013-03-05 23:11:00,
2013-03-05 18:26:00,44.9,20.0,29.83,NE,47,4.0,9.0,37,0.00,,,0.00,weatherlink.com 1.10,2013-03-05 23:26:00,
2013-03-05 18:41:00,44.7,19.0,29.83,NE,56,3.0,7.0,36,0.00,,,0.00,weatherlink.com 1.10,2013-03-05 23:41:00,
2013-03-05 18:56:00,44.5,18.0,29.83,ENE,74,2.0,7.0,35,0.00,,,0.00,weatherlink.com 1.10,2013-03-05 23:56:00,
2013-03-05 21:00:00,43.6,21.0,29.78,ESE,102,2.0,12.0,40,0.00,,,0.00,weatherlink.com 1.10,2013-03-06 02:00:00,
2013-03-05 21:12:00,43.3,21.0,29.79,ESE,115,7.0,14.0,41,0.00,,,0.00,weatherlink.com 1.10,2013-03-06 02:12:00,
2013-03-05 21:27:00,42.7,23.0,29.79,East,91,3.0,9.0,45,0.00,,,0.00,weatherlink.com 1.10,2013-03-06 02:27:00,
2013-03-05 21:42:00,41.9,24.0,29.80,ESE,108,4.0,16.0,49,0.00,,,0.00,weatherlink.com 1.10,2013-03-06 02:42:00,
2013-03-05 21:58:00,39.5,29.0,29.81,SE,128,2.0,14.0,65,0.00,,,0.00,weatherlink.com 1.10,2013-03-06 02:58:00,
2013-03-05 22:12:00,38.8,30.0,29.80,NE,46,9.0,16.0,70,0.00,,,0.00,weatherlink.com 1.10,2013-03-06 03:12:00,
2013-03-05 22:27:00,36.9,31.0,29.79,SSE,160,7.0,13.0,79,0.00,,,0.00,weatherlink.com 1.10,2013-03-06 03:27:00,
2013-03-05 22:42:00,35.5,31.0,29.78,ESE,114,4.0,13.0,85,0.00,,,0.00,weatherlink.com 1.10,2013-03-06 03:42:00,
2013-03-05 22:57:00,34.4,32.0,29.78,ESE,108,1.0,3.0,89,0.01,,,0.01,weatherlink.com 1.10,2013-03-06 03:57:00,
2013-03-05 23:12:00,33.8,32.0,29.78,ENE,64,1.0,3.0,91,0.01,,,0.01,weatherlink.com 1.10,2013-03-06 04:12:00,
2013-03-05 23:27:00,33.5,32.0,29.77,ENE,62,1.0,4.0,93,0.01,,,0.01,weatherlink.com 1.10,2013-03-06 04:27:00,
2013-03-05 23:42:00,33.2,31.0,29.76,East,95,4.0,10.0,93,0.01,,,0.01,weatherlink.com 1.10,2013-03-06 04:42:00,
2013-03-05 23:57:00,33.0,32.0,29.75,SE,134,0.0,7.0,94,0.00,,,0.01,weatherlink.com 1.10,2013-03-06 04:57:00,